{"data":{"norad_id":43073,"epoch":"2026-09-20T01:38:35.178144Z","epoch_age_seconds":52680,"freshness":"FRESH","line1":"1 43073U 17083D   26263.06846271 -.00000001  00000+0 -73318-5 0  9998","line2":"2 43073  86.3919 282.6163 0002017  87.0502 273.0925 14.34217363457711","mean_motion":14.34217363,"eccentricity":0.0002017,"inclination_deg":86.3919,"raan_deg":282.6163,"arg_perigee_deg":87.0502,"mean_anomaly_deg":273.0925,"bstar":-7.3318e-6,"rev_number":45771,"period_min":100.40319111658,"perigee_km":776.22511564667,"apogee_km":779.11176756182,"semimajor_km":7155.8054416042,"source":"CELESTRAK","updated_at":"2026-09-20T09:00:36.326953Z"}}